TimeCST,TemperatureF,Dew PointF,Humidity,Sea Level PressureIn,VisibilityMPH,Wind Direction,Wind SpeedMPH,Gust SpeedMPH,PrecipitationIn,Events,Conditions,WindDirDegrees,DateUTC
12:05 AM,17.6,15.8,93,30.38,10.0,Calm,Calm,-,N/A,,Overcast,0,2012-12-05 06:05:00
12:25 AM,17.6,15.8,93,30.38,10.0,Calm,Calm,-,N/A,,Overcast,0,2012-12-05 06:25:00
12:45 AM,15.8,14.0,93,30.38,10.0,Calm,Calm,-,N/A,,Overcast,0,2012-12-05 06:45:00
1:05 AM,15.8,12.2,86,30.38,10.0,Calm,Calm,-,N/A,,Overcast,0,2012-12-05 07:05:00
1:25 AM,15.8,12.2,86,30.38,10.0,Calm,Calm,-,N/A,,Overcast,0,2012-12-05 07:25:00
1:45 AM,14.0,10.4,86,30.37,10.0,Calm,Calm,-,N/A,,Overcast,0,2012-12-05 07:45:00
2:05 AM,12.2,10.4,92,30.38,10.0,Calm,Calm,-,N/A,,Overcast,0,2012-12-05 08:05:00
2:25 AM,12.2,8.6,85,30.39,10.0,Calm,Calm,-,N/A,,Overcast,0,2012-12-05 08:25:00
2:45 AM,10.4,6.8,85,30.37,10.0,Calm,Calm,-,N/A,,Scattered Clouds,0,2012-12-05 08:45:00
3:05 AM,8.6,6.8,92,30.37,10.0,Calm,Calm,-,N/A,,Clear,0,2012-12-05 09:05:00
3:45 AM,8.6,5.0,85,30.37,10.0,Calm,Calm,-,N/A,,Clear,0,2012-12-05 09:45:00
4:05 AM,6.8,5.0,92,30.38,10.0,Calm,Calm,-,N/A,,Clear,0,2012-12-05 10:05:00
4:25 AM,6.8,3.2,85,30.37,10.0,Calm,Calm,-,N/A,,Clear,0,2012-12-05 10:25:00
4:45 AM,6.8,3.2,85,30.37,10.0,Calm,Calm,-,N/A,,Clear,0,2012-12-05 10:45:00
5:04 AM,6.8,3.2,85,30.37,10.0,Calm,Calm,-,N/A,,Clear,0,2012-12-05 11:04:00
5:24 AM,6.8,3.2,85,30.36,10.0,Calm,Calm,-,N/A,,Clear,0,2012-12-05 11:24:00
5:45 AM,6.8,3.2,85,30.36,10.0,Calm,Calm,-,N/A,,Clear,0,2012-12-05 11:45:00
6:05 AM,5.0,3.2,92,30.36,10.0,Calm,Calm,-,N/A,,Clear,0,2012-12-05 12:05:00
6:25 AM,5.0,3.2,92,30.35,10.0,Calm,Calm,-,N/A,,Clear,0,2012-12-05 12:25:00
6:44 AM,5.0,3.2,92,30.35,10.0,Calm,Calm,-,N/A,,Clear,0,2012-12-05 12:44:00
8:25 AM,8.6,6.8,92,30.33,10.0,Calm,Calm,-,N/A,,Clear,0,2012-12-05 14:25:00
8:45 AM,10.4,10.4,100,30.32,10.0,SSE,3.5,-,N/A,,Clear,150,2012-12-05 14:45:00
9:05 AM,14.0,12.2,93,30.32,10.0,Calm,Calm,-,N/A,,Clear,0,2012-12-05 15:05:00
9:25 AM,15.8,14.0,93,30.31,10.0,SSE,8.1,-,N/A,,Clear,160,2012-12-05 15:25:00
9:45 AM,17.6,15.8,93,30.29,10.0,SSE,5.8,9.2,N/A,,Clear,160,2012-12-05 15:45:00
10:05 AM,17.6,15.8,93,30.28,10.0,SSE,8.1,-,N/A,,Clear,160,2012-12-05 16:05:00
10:25 AM,19.4,17.6,93,30.27,10.0,SSE,6.9,-,N/A,,Clear,160,2012-12-05 16:25:00
10:45 AM,21.2,17.6,86,30.25,10.0,SSE,5.8,-,N/A,,Clear,150,2012-12-05 16:45:00
11:04 AM,21.2,17.6,86,30.24,10.0,SSE,9.2,-,N/A,,Clear,160,2012-12-05 17:04:00
11:24 AM,23.0,17.6,80,30.22,10.0,SSE,6.9,-,N/A,,Clear,160,2012-12-05 17:24:00
11:45 AM,23.0,17.6,80,30.21,10.0,SSE,5.8,-,N/A,,Clear,150,2012-12-05 17:45:00
12:04 PM,24.8,17.6,74,30.20,10.0,SSE,10.4,17.3,N/A,,Clear,160,2012-12-05 18:04:00
12:24 PM,24.8,17.6,74,30.19,10.0,SSE,6.9,-,N/A,,Clear,150,2012-12-05 18:24:00
12:45 PM,24.8,17.6,74,30.18,10.0,SSE,5.8,-,N/A,,Clear,150,2012-12-05 18:45:00
1:04 PM,26.6,17.6,69,30.17,10.0,SSE,8.1,-,N/A,,Clear,150,2012-12-05 19:04:00
1:24 PM,24.8,17.6,74,30.13,10.0,SE,4.6,-,N/A,,Clear,130,2012-12-05 19:24:00
1:45 PM,26.6,19.4,74,30.12,10.0,SSE,5.8,-,N/A,,Clear,160,2012-12-05 19:45:00
2:05 PM,26.6,17.6,69,30.10,10.0,SSE,9.2,-,N/A,,Scattered Clouds,150,2012-12-05 20:05:00
2:25 PM,26.6,17.6,69,30.08,10.0,SE,6.9,-,N/A,,Scattered Clouds,140,2012-12-05 20:25:00
2:45 PM,26.6,17.6,69,30.06,10.0,SSE,5.8,-,N/A,,Clear,150,2012-12-05 20:45:00
3:04 PM,26.6,17.6,69,30.04,10.0,SSE,5.8,-,N/A,,Clear,150,2012-12-05 21:04:00
3:24 PM,26.6,17.6,69,30.02,10.0,SE,3.5,-,N/A,,Clear,130,2012-12-05 21:24:00
3:45 PM,26.6,15.8,64,30.02,10.0,SE,5.8,-,N/A,,Clear,140,2012-12-05 21:45:00
4:05 PM,26.6,15.8,64,30.01,10.0,ESE,4.6,-,N/A,,Scattered Clouds,110,2012-12-05 22:05:00
4:24 PM,26.6,17.6,69,29.98,10.0,SSE,5.8,-,N/A,,Overcast,150,2012-12-05 22:24:00
4:45 PM,26.6,17.6,69,29.96,10.0,SE,8.1,-,N/A,,Mostly Cloudy,130,2012-12-05 22:45:00
5:05 PM,24.8,17.6,74,29.95,10.0,SE,5.8,-,N/A,,Scattered Clouds,140,2012-12-05 23:05:00
5:24 PM,24.8,17.6,74,29.93,10.0,SSE,8.1,-,N/A,,Clear,150,2012-12-05 23:24:00
5:44 PM,26.6,17.6,69,29.91,10.0,SE,6.9,-,N/A,,Clear,140,2012-12-05 23:44:00
6:05 PM,26.6,17.6,69,29.90,10.0,SE,3.5,-,N/A,,Clear,130,2012-12-06 00:05:00
6:24 PM,26.6,17.6,69,29.90,10.0,SSE,4.6,-,N/A,,Clear,160,2012-12-06 00:24:00
6:45 PM,26.6,17.6,69,29.89,10.0,SSE,6.9,-,N/A,,Clear,160,2012-12-06 00:45:00
7:04 PM,26.6,17.6,69,29.88,10.0,SSE,4.6,-,N/A,,Clear,150,2012-12-06 01:04:00
7:24 PM,26.6,17.6,69,29.87,10.0,SSE,4.6,-,N/A,,Clear,160,2012-12-06 01:24:00
7:44 PM,26.6,17.6,69,29.86,10.0,SSE,5.8,-,N/A,,Clear,150,2012-12-06 01:44:00
8:04 PM,26.6,17.6,69,29.85,10.0,SSE,3.5,-,N/A,,Clear,160,2012-12-06 02:04:00
8:24 PM,26.6,17.6,69,29.84,10.0,SSE,4.6,-,N/A,,Clear,150,2012-12-06 02:24:00
8:45 PM,26.6,17.6,69,29.83,10.0,SSE,5.8,-,N/A,,Clear,160,2012-12-06 02:45:00
9:04 PM,26.6,17.6,69,29.82,10.0,SE,3.5,-,N/A,,Clear,140,2012-12-06 03:04:00
9:24 PM,26.6,19.4,74,29.80,10.0,South,8.1,-,N/A,,Clear,170,2012-12-06 03:24:00
9:44 PM,28.4,19.4,69,29.78,10.0,South,9.2,18.4,N/A,,Clear,170,2012-12-06 03:44:00
10:05 PM,28.4,19.4,69,29.78,10.0,SSE,8.1,17.3,N/A,,Clear,160,2012-12-06 04:05:00
10:25 PM,30.2,19.4,64,29.77,10.0,South,8.1,-,N/A,,Clear,170,2012-12-06 04:25:00
10:44 PM,30.2,19.4,64,29.77,10.0,South,6.9,-,N/A,,Clear,170,2012-12-06 04:44:00
11:05 PM,30.2,19.4,64,29.77,10.0,South,9.2,-,N/A,,Clear,180,2012-12-06 05:05:00
11:25 PM,30.2,19.4,64,29.76,10.0,South,8.1,-,N/A,,Clear,170,2012-12-06 05:25:00
11:44 PM,30.2,19.4,64,29.75,10.0,South,5.8,-,N/A,,Clear,170,2012-12-06 05:44:00